This is the latest recevied weather packets stored in our database for station/object IR3AS. If no packets are shown the sender has not sent any weather packets the latest 10 day(s).
| Time | Temp. | Humidity | Pressure | Rain* | Wind** | Luminosity | Snow |
|---|---|---|---|---|---|---|---|
| 1787658307 | 12.78° C | 91% | 860.1 hPa | 0 mm | - | - | - |
| 1787658006 | 12.78° C | 92% | 859.9 hPa | 0 mm | - | - | - |
| 1787657814 | 12.78° C | 92% | 859.9 hPa | 0 mm | - | - | - |
| 1787657707 | 12.78° C | 92% | 859.9 hPa | 0 mm | - | - | - |
| 1787657406 | 12.78° C | 92% | 859.3 hPa | 0 mm | - | - | - |
| 1787657106 | 12.78° C | 92% | 859.1 hPa | 0 mm | - | - | - |
| 1787656810 | 12.78° C | 92% | 859.1 hPa | 0 mm | - | - | - |
| 1787656506 | 12.78° C | 92% | 858.9 hPa | 0 mm | - | - | - |
| 1787656206 | 13.33° C | 92% | 858.6 hPa | 0 mm | - | - | - |
| 1787655906 | 13.89° C | 93% | 858.3 hPa | 0 mm | - | - | - |
| 1787655606 | 13.89° C | 94% | 858 hPa | 0 mm | - | - | - |
| 1787655306 | 13.33° C | 93% | 858 hPa | 0 mm | - | - | - |
| 1787655007 | 12.22° C | 94% | 857.8 hPa | 0 mm | - | - | - |
| 1787654706 | 11.67° C | 94% | 857.8 hPa | 0 mm | - | - | - |
| 1787654406 | 11.11° C | 94% | 857.7 hPa | 0 mm | - | - | - |
| 1787654106 | 11.11° C | 94% | 857.2 hPa | 0 mm | - | - | - |
| 1787653806 | 11.11° C | 93% | 856.9 hPa | 0 mm | - | - | - |
| 1787653506 | 11.11° C | 94% | 856.8 hPa | 0 mm | - | - | - |
| 1787653206 | 11.11° C | 94% | 856.9 hPa | 0 mm | - | - | - |
| 1787652906 | 11.11° C | 94% | 856.8 hPa | 0 mm | - | - | - |
| 1787652606 | 11.11° C | 94% | 856.5 hPa | 0 mm | - | - | - |
| 1787652306 | 10.56° C | 93% | 856.3 hPa | 0 mm | - | - | - |
| 1787652006 | 10.56° C | 93% | 856.1 hPa | 0 mm | - | - | - |
| 1787651706 | 10.56° C | 94% | 856 hPa | 0 mm | - | - | - |
| 1787651406 | 10° C | 94% | 855.9 hPa | 0 mm | - | - | - |
* Rain latest hour (hover to see other rain measurements)
** Current wind speed in m/s (hover to see current wind gust speed)